Regional Weather Roundup
Issued by NWS Little Rock, AR

Home | Current Version | Previous Version | Graphics & Text | Print | Product List | Glossary On
Versions: 1 2 3 4 5 6 7 8 9 10 11 12 13 14 15 16 17 18 19 20 21 22 23 24 25 26 27 28 29 30 31 32 33 34 35 36 37 38 39 40 41 42 43 44 45 46 47 48 49 50
000
ASUS44 KLZK 211610
RWRLZK

WEATHER ROUNDUP FOR ARKANSAS
NATIONAL WEATHER SERVICE LITTLE ROCK AR
1100 AM CDT THU OCT 21 2021

NOTE: "FAIR" INDICATES FEW OR NO CLOUDS BELOW 12,000 FEET WITH NO
SIGNIFICANT WEATHER AND/OR OBSTRUCTIONS TO VISIBILITY.

ARZ001-003-010-029-211700-
NORTHWEST ARKANSAS

CITY           SKY/WX    TMP DP  RH WIND       PRES   REMARKS
FAYETTEVILLE   FAIR      61  40  45 NW6       30.22F
FORT SMITH     FAIR      65  42  43 NW8       30.22S
HARRISON       FAIR      59  41  51 W13       30.19R
BENTONVILLE    FAIR      56  40  55 NW9       30.24S
ROGERS         FAIR      55  39  54 NW14      30.23S
SILOAM SPGS    FAIR      56  43  61 N8        30.24S
HIGHFILL       FAIR      56  42  59 N6        30.23S
SPRINGDALE     SUNNY     55  41  58 NW12      30.23S
$$

ARZ004-005-016-211700-
NORTH CENTRAL ARKANSAS

CITY           SKY/WX    TMP DP  RH WIND       PRES   REMARKS
BATESVILLE     FAIR      66  43  43 NW7G18      N/A
FLIPPIN        FAIR      61  44  53 W9        30.18F
MTN HOME       FAIR      59  41  51 VRB7      30.17S
$$

ARZ040-041-211700-
WEST CENTRAL ARKANSAS

CITY           SKY/WX    TMP DP  RH WIND       PRES   REMARKS
MENA           FAIR      70  45  40 N7        30.21S
MOUNT IDA      FAIR      71  44  37 VRB3      30.17S
$$

ARZ009-017-025-026-028-211700-
NORTHEAST ARKANSAS

CITY           SKY/WX    TMP DP  RH WIND       PRES   REMARKS
JONESBORO      FAIR      68  45  43 NW14G20   30.13S
NEWPORT        FAIR      68  44  42 NW13G21   30.14S
WALNUT RIDGE   FAIR      66  46  48 NW14G22   30.12F
BLYTHEVILLE    PTSUNNY   69  44  40 W9        30.10F
$$

ARZ032-043-044-211700-
LITTLE ROCK METRO AREA

CITY           SKY/WX    TMP DP  RH WIND       PRES   REMARKS
LITTLE ROCK    FAIR      72  50  45 NW15      30.16R
NLR AIRPORT    FAIR      70  48  46 NW14      30.15S
BENTON         SUNNY     73  55  53 NW8G16    30.16R
JACKSONVILLE   FAIR      70  49  47 NW9G22    30.14S
CONWAY         SUNNY     72  46  40 NW10      30.16S
$$

ARZ022-023-033-042-211700-
REMAINDER OF CENTRAL ARKANSAS

CITY           SKY/WX    TMP DP  RH WIND       PRES   REMARKS
SEARCY         FAIR      72  47  40 VRB6      30.15S
HOT SPRINGS    FAIR      73  49  42 W9        30.17S
RUSSELLVILLE   FAIR      69  44  40 NW10      30.18R
CLINTON        FAIR      68  43  40 NW7G16    30.16F
$$

ARZ036-211700-
EAST ARKANSAS

CITY           SKY/WX    TMP DP  RH WIND       PRES   REMARKS
WEST MEMPHIS   FAIR      72  44  36 N9        30.12S
$$

ARZ050-053-066-070-073-211700-
SOUTHWEST ARKANSAS

CITY           SKY/WX    TMP DP  RH WIND       PRES   REMARKS
TEXARKANA      PTSUNNY   77  63  61 NW5       30.17S
EL DORADO      FAIR      77  65  66 VRB3      30.16S
DE QUEEN       FAIR      75  46  35 VRB3      30.17R
$$

ARZ056-057-069-211700-
SOUTHEAST ARKANSAS

CITY           SKY/WX    TMP DP  RH WIND       PRES   REMARKS
PINE BLUFF     FAIR      76  62  62 N8        30.14S
STUTTGART      FAIR      72  58  61 N10       30.15S
MONTICELLO     FAIR      78  65  63 NW7       30.14S

$$





USA.gov is the U.S. government's official web portal to all federal, state and local government web resources and services.